| time (UTC) | temp F | wind direction | speed MPH | gust MPH | rain 1hr in | rain 24hr in | rain mn in | humidity % | barometer mb |
| 20260504081803 | 47 | 80 | 0.0 | 2.0 | 0.00 | 0.00 | 0.00 | 60 | |
| 20260504080903 | 47 | 80 | 1.0 | 4.0 | 0.00 | 0.00 | 0.00 | 57 | |
| 20260504050003 | 58 | 159 | 2.0 | 4.0 | 0.00 | 0.00 | 0.00 | 42 | |
| 20260504045613 | 58 | 154 | 2.0 | 6.0 | 0.00 | 0.00 | 0.00 | 42 | |
| 20260504044712 | 58 | 157 | 1.0 | 7.0 | 0.00 | 0.00 | 0.00 | 42 | |
| 20260504043603 | 59 | 284 | 0.0 | 2.0 | 0.00 | 0.00 | 0.00 | 40 | |
| 20260504042703 | 59 | 279 | 3.0 | 6.0 | 0.00 | 0.00 | 0.00 | 40 | |
| 20260504042012 | 60 | 257 | 2.0 | 6.0 | 0.00 | 0.00 | 0.00 | 39 | |
| 20260504040903 | 61 | 114 | 2.0 | 5.0 | 0.00 | 0.00 | 0.00 | 38 | |
| 20260504040003 | 61 | 121 | 5.0 | 12.0 | 0.00 | 0.00 | 0.00 | 37 | |
| 20260504035403 | 61 | 198 | 4.0 | 12.0 | 0.00 | 0.00 | 0.00 | 33 | |
| 20260504034505 | 61 | 121 | 2.0 | 3.0 | 0.00 | 0.00 | 0.00 | 38 | |
| 20260504033813 | 61 | 126 | 3.0 | 7.0 | 0.00 | 0.00 | 0.00 | 38 | |
| 20260504032703 | 60 | 180 | 3.0 | 7.0 | 0.00 | 0.00 | 0.00 | 39 | |
| 20260504031803 | 61 | 155 | 4.0 | 9.0 | 0.00 | 0.00 | 0.00 | 39 | |
| 20260504030903 | 61 | 144 | 5.0 | 13.0 | 0.00 | 0.00 | 0.00 | 39 | |
| 20260504030004 | 61 | 153 | 6.0 | 13.0 | 0.00 | 0.00 | 0.00 | 38 | |
| 20260504025403 | 61 | 147 | 6.0 | 16.0 | 0.00 | 0.00 | 0.00 | 38 | |
| 20260504024503 | 61 | 159 | 5.0 | 13.0 | 0.00 | 0.00 | 0.00 | 38 | |
| 20260504023603 | 60 | 119 | 4.0 | 10.0 | 0.00 | 0.00 | 0.00 | 39 | |
| 20260504022703 | 60 | 110 | 4.0 | 11.0 | 0.00 | 0.00 | 0.00 | 41 | |
| 20260504021803 | 60 | 96 | 7.0 | 17.0 | 0.00 | 0.00 | 0.00 | 41 | |
| 20260504020903 | 60 | 107 | 7.0 | 17.0 | 0.00 | 0.00 | 0.00 | 42 | |
| 20260504020003 | 60 | 110 | 7.0 | 17.0 | 0.00 | 0.00 | 0.00 | 42 | |
| 20260504015403 | 61 | 129 | 7.0 | 16.0 | 0.00 | 0.00 | 0.00 | 41 | |
| 20260504014503 | 62 | 139 | 6.0 | 15.0 | 0.00 | 0.00 | 0.00 | 39 | |
| 20260504013603 | 63 | 148 | 9.0 | 18.0 | 0.00 | 0.00 | 0.00 | 35 | |
| 20260504012914 | 64 | 149 | 11.0 | 21.0 | 0.00 | 0.00 | 0.00 | 34 | |
| 20260504011803 | 65 | 141 | 8.0 | 18.0 | 0.00 | 0.00 | 0.00 | 31 | |
| 20260504010903 | 65 | 149 | 7.0 | 13.0 | 0.00 | 0.00 | 0.00 | 31 | |
| 20260504010214 | 65 | 151 | 5.0 | 13.0 | 0.00 | 0.00 | 0.00 | 31 | |
| 20260504005403 | 65 | 153 | 6.0 | 15.0 | 0.00 | 0.00 | 0.00 | 31 | |
| 20260504004503 | 65 | 139 | 9.0 | 21.0 | 0.00 | 0.00 | 0.00 | 30 | |
| 20260504003603 | 66 | 141 | 12.0 | 21.0 | 0.00 | 0.00 | 0.00 | 30 | |
| 20260504002913 | 66 | 149 | 13.0 | 23.0 | 0.00 | 0.00 | 0.00 | 30 | |
| 20260504001803 | 68 | 156 | 7.0 | 27.0 | 0.00 | 0.00 | 0.00 | 28 | |
| 20260504000903 | 69 | 153 | 6.0 | 13.0 | 0.00 | 0.00 | 0.00 | 26 | |
| 20260504000003 | 70 | 153 | 8.0 | 16.0 | 0.00 | 0.00 | 0.00 | 25 | |
| 20260503235403 | 70 | 164 | 8.0 | 17.0 | 0.00 | 0.00 | 0.00 | 25 | |
| 20260503234503 | 71 | 154 | 10.0 | 18.0 | 0.00 | 0.00 | 0.00 | 25 | |
| 20260503233603 | 73 | 170 | 9.0 | 22.0 | 0.00 | 0.00 | 0.00 | 24 | |
| 20260503232703 | 74 | 187 | 6.0 | 13.0 | 0.00 | 0.00 | 0.00 | 23 | |
| 20260503232012 | 74 | 210 | 6.0 | 13.0 | 0.00 | 0.00 | 0.00 | 22 | |
| 20260503230903 | 75 | 191 | 6.0 | 18.0 | 0.00 | 0.00 | 0.00 | 23 | |
| 20260503230003 | 75 | 143 | 7.0 | 13.0 | 0.00 | 0.00 | 0.00 | 22 | |
| 20260503225403 | 74 | 132 | 7.0 | 13.0 | 0.00 | 0.00 | 0.00 | 21 | |
| 20260503224503 | 75 | 130 | 5.0 | 15.0 | 0.00 | 0.00 | 0.00 | 21 | |
| 20260503223813 | 74 | 112 | 5.0 | 10.0 | 0.00 | 0.00 | 0.00 | 22 | |
| 20260503222703 | 75 | 164 | 5.0 | 11.0 | 0.00 | 0.00 | 0.00 | 22 | |
| 20260503221803 | 76 | 230 | 8.0 | 15.0 | 0.00 | 0.00 | 0.00 | 23 | |
| 20260503221113 | 76 | 210 | 8.0 | 15.0 | 0.00 | 0.00 | 0.00 | 22 | |
| 20260503220003 | 77 | 191 | 6.0 | 14.0 | 0.00 | 0.00 | 0.00 | 21 | |
| 20260503215403 | 76 | 171 | 7.0 | 14.0 | 0.00 | 0.00 | 0.00 | 21 | |
| 20260503214503 | 76 | 184 | 7.0 | 18.0 | 0.00 | 0.00 | 0.00 | 21 | |
| 20260503213603 | 76 | 166 | 7.0 | 13.0 | 0.00 | 0.00 | 0.00 | 22 | |
| 20260503212703 | 76 | 187 | 10.0 | 18.0 | 0.00 | 0.00 | 0.00 | 21 | |
| 20260503211803 | 77 | 209 | 9.0 | 18.0 | 0.00 | 0.00 | 0.00 | 21 | |
| 20260503210903 | 76 | 194 | 7.0 | 21.0 | 0.00 | 0.00 | 0.00 | 22 | |
| 20260503210003 | 76 | 197 | 7.0 | 14.0 | 0.00 | 0.00 | 0.00 | 21 | |
| 20260503205403 | 75 | 229 | 7.0 | 14.0 | 0.00 | 0.00 | 0.00 | 21 | |
| 20260503204503 | 76 | 208 | 7.0 | 14.0 | 0.00 | 0.00 | 0.00 | 20 | |
| 20260503203813 | 76 | 213 | 6.0 | 14.0 | 0.00 | 0.00 | 0.00 | 21 | |
| 20260503202703 | 75 | 217 | 7.0 | 17.0 | 0.00 | 0.00 | 0.00 | 22 | |
| 20260503201803 | 75 | 187 | 7.0 | 19.0 | 0.00 | 0.00 | 0.00 | 22 | |
| 20260503200903 | 75 | 236 | 10.0 | 16.0 | 0.00 | 0.00 | 0.00 | 21 | |
| 20260503200003 | 74 | 207 | 7.0 | 19.0 | 0.00 | 0.00 | 0.00 | 21 | |
| 20260503195403 | 74 | 196 | 6.0 | 18.0 | 0.00 | 0.00 | 0.00 | 21 | |
| 20260503194503 | 74 | 220 | 7.0 | 13.0 | 0.00 | 0.00 | 0.00 | 21 | |
| 20260503193603 | 73 | 205 | 8.0 | 15.0 | 0.00 | 0.00 | 0.00 | 21 | |
| 20260503192703 | 74 | 201 | 8.0 | 18.0 | 0.00 | 0.00 | 0.00 | 20 | |
| 20260503191803 | 73 | 175 | 9.0 | 21.0 | 0.00 | 0.00 | 0.00 | 20 | |
| 20260503190903 | 73 | 180 | 9.0 | 20.0 | 0.00 | 0.00 | 0.00 | 20 | |
| 20260503190003 | 73 | 193 | 9.0 | 25.0 | 0.00 | 0.00 | 0.00 | 22 | |
| 20260503185403 | 72 | 198 | 9.0 | 25.0 | 0.00 | 0.00 | 0.00 | 21 | |
| 20260503184503 | 72 | 210 | 8.0 | 17.0 | 0.00 | 0.00 | 0.00 | 22 | |
| 20260503183603 | 74 | 213 | 8.0 | 18.0 | 0.00 | 0.00 | 0.00 | 21 | |
| 20260503182704 | 73 | 199 | 10.0 | 22.0 | 0.00 | 0.00 | 0.00 | 22 | |
| 20260503181803 | 72 | 213 | 7.0 | 20.0 | 0.00 | 0.00 | 0.00 | 24 | |
| 20260503180903 | 71 | 212 | 7.0 | 15.0 | 0.00 | 0.00 | 0.00 | 24 | |
| 20260503180003 | 72 | 214 | 8.0 | 17.0 | 0.00 | 0.00 | 0.00 | 23 | |
| 20260503175403 | 72 | 210 | 7.0 | 13.0 | 0.00 | 0.00 | 0.00 | 23 | |
| 20260503174712 | 72 | 203 | 8.0 | 14.0 | 0.00 | 0.00 | 0.00 | 23 | |
| 20260503173603 | 72 | 209 | 7.0 | 13.0 | 0.00 | 0.00 | 0.00 | 24 | |
| 20260503172913 | 71 | 201 | 8.0 | 16.0 | 0.00 | 0.00 | 0.00 | 24 | |
| 20260503171803 | 71 | 206 | 7.0 | 15.0 | 0.00 | 0.00 | 0.00 | 23 | |
| 20260503170903 | 71 | 215 | 6.0 | 12.0 | 0.00 | 0.00 | 0.00 | 22 | |
| 20260503150903 | 56 | 341 | 2.0 | 3.0 | 0.00 | 0.00 | 0.00 | 38 | |
| 20260503150214 | 55 | 341 | 2.0 | 5.0 | 0.00 | 0.00 | 0.00 | 37 |